Firenze / Peretola, Italy

10:06 AM CET on January 20, 2017 (GMT +0100)
Peretola

Weather History for LIRQ - July, 2013

Change the Weather History Date:

Friday, July 19, 2013

  Actual Average Record
Temperature  
Mean Temperature 73 °F -  
Max Temperature 87 °F 87 °F 100 °F (2007)
Min Temperature 59 °F 63 °F 59 °F (2013)
Cooling Degree Days 8    
Growing Degree Days 23 (Base 50)    
Moisture  
Dew Point 63 °F    
Average Humidity 72    
Maximum Humidity 100    
Minimum Humidity 35    
Precipitation  
Precipitation 0.00 in 0.08 in - ()
Sea Level Pressure  
Sea Level Pressure 30.03 in    
Wind  
Wind Speed 3 mph ()    
Max Wind Speed 15 mph    
Max Gust Speed -    
Visibility 6.2 miles    
Events      
Averages and records for this station are not official NWS values.
T = Trace of Precipitation, MM = Missing Value Source: Averaged Metar Reports

Daily Weather History Graph

Daily Weather History Graph

Search for Another Location

Airport or City:

Trip Planner

Search our weather history database for the weather conditions in past years. The results will help you decide how hot, cold, wet, or windy it might be!

Date:

Astronomy

Jul. 19, 2013 Rise Set
Actual Time 5:50 AM CEST 8:51 PM CEST
Civil Twilight 5:16 AM CEST 9:26 PM CEST
Nautical Twilight 4:32 AM CEST 10:09 PM CEST
Astronomical Twilight 3:39 AM CEST 11:01 PM CEST
Moon 5:35 PM CEST (7/19) 2:17 AM CEST (7/19)
Length of Visible Light 16h 09m
Length of Day
15h 01m
Waxing Gibbous, 84% of the Moon is Illuminated
Jul 19
Waxing Gibbous
Jul 22
Full
Jul 29
Last Quarter
Aug 6
New
Aug 14
First Quarter

Hourly Weather History & Observations

Time (CEST) Temp. Heat Index Dew Point Humidity Pressure Visibility Wind Dir Wind Speed Gust Speed Precip Events Conditions
12:20 AM 66.2 °F - 64.4 °F 94% 30.06 in 6.2 mi NE 3.5 mph - N/A   Mostly Cloudy
12:50 AM 66.2 °F - 64.4 °F 94% 30.06 in 6.2 mi East 3.5 mph - N/A   Scattered Clouds
1:20 AM 66.2 °F - 64.4 °F 94% 30.06 in 6.2 mi Variable 2.3 mph - N/A   Scattered Clouds
1:50 AM 66.2 °F - 64.4 °F 94% 30.06 in 6.2 mi Variable 2.3 mph - N/A   Scattered Clouds
2:20 AM 66.2 °F - 64.4 °F 94% 30.06 in 6.2 mi SSE 3.5 mph - N/A   Scattered Clouds
3:20 AM 64.4 °F - 62.6 °F 94% 30.06 in - Variable 2.3 mph - N/A   Clear
3:50 AM 62.6 °F - 60.8 °F 94% 30.06 in - East 2.3 mph - N/A   Clear
4:20 AM 60.8 °F - 60.8 °F 100% 30.06 in - Calm Calm - N/A   Clear
5:20 AM 59.0 °F - 59.0 °F 100% 30.04 in - Calm Calm - N/A   Clear
5:50 AM 59.0 °F - 59.0 °F 100% 30.04 in - Calm Calm - N/A   Clear
6:20 AM 59.0 °F - 59.0 °F 100% 30.04 in - Calm Calm - N/A   Clear
6:50 AM 60.8 °F - 59.0 °F 94% 30.04 in - Variable 1.2 mph - N/A   Clear
7:20 AM 66.2 °F - 62.6 °F 88% 30.06 in - North 1.2 mph - N/A   Clear
7:50 AM 68.0 °F - 64.4 °F 88% 30.06 in - Calm Calm - N/A   Clear
8:20 AM 69.8 °F - 64.4 °F 83% 30.06 in - Calm Calm - N/A   Clear
8:50 AM 71.6 °F - 64.4 °F 78% 30.06 in - Variable 2.3 mph - N/A   Clear
9:20 AM 71.6 °F - 64.4 °F 78% 30.06 in - Variable 2.3 mph - N/A   Clear
9:50 AM 73.4 °F - 64.4 °F 73% 30.06 in - Variable 2.3 mph - N/A   Clear
10:20 AM 75.2 °F - 64.4 °F 69% 30.06 in - Variable 2.3 mph - N/A   Clear
11:20 AM 80.6 °F 82.7 °F 66.2 °F 61% 30.04 in - Variable 3.5 mph - N/A   Clear
11:50 AM 80.6 °F 82.3 °F 64.4 °F 58% 30.04 in - West 3.5 mph - N/A   Clear
12:20 PM 82.4 °F 84.6 °F 66.2 °F 58% 30.04 in 6.2 mi NNW 3.5 mph - N/A   Partly Cloudy
12:50 PM 84.2 °F 85.0 °F 62.6 °F 48% 30.04 in 6.2 mi North 3.5 mph - N/A   Partly Cloudy
1:20 PM 86.0 °F 86.1 °F 60.8 °F 43% 30.01 in 6.2 mi NNW 3.5 mph - N/A   Partly Cloudy
1:50 PM 87.8 °F 86.5 °F 57.2 °F 35% 30.01 in 6.2 mi Variable 3.5 mph - N/A   Partly Cloudy
2:20 PM 87.8 °F 86.5 °F 57.2 °F 35% 30.01 in 6.2 mi Variable 4.6 mph - N/A   Partly Cloudy
2:50 PM 82.4 °F 83.4 °F 62.6 °F 51% 30.01 in 6.2 mi NNW 11.5 mph - N/A   Scattered Clouds
3:20 PM 78.8 °F - 64.4 °F 61% 30.01 in 6.2 mi NNE 9.2 mph - N/A   Partly Cloudy
3:50 PM 82.4 °F 83.9 °F 64.4 °F 54% 29.98 in 6.2 mi WNW 8.1 mph - N/A   Partly Cloudy
4:20 PM 86.0 °F 86.6 °F 62.6 °F 45% 29.98 in 6.2 mi NW 6.9 mph - N/A   Partly Cloudy
4:50 PM 86.0 °F 85.4 °F 59.0 °F 40% 29.98 in 6.2 mi Variable 2.3 mph - N/A   Partly Cloudy
5:20 PM 86.0 °F 85.4 °F 59.0 °F 40% 29.98 in 6.2 mi WNW 3.5 mph - N/A   Partly Cloudy
5:50 PM 86.0 °F 86.1 °F 60.8 °F 43% 29.98 in 6.2 mi WNW 4.6 mph - N/A   Partly Cloudy
6:20 PM 80.6 °F 81.8 °F 62.6 °F 54% 29.98 in 6.2 mi East 12.7 mph - N/A   Scattered Clouds
6:50 PM 77.0 °F - 64.4 °F 65% 30.01 in 6.2 mi East 15.0 mph - N/A   Scattered Clouds
7:20 PM 75.2 °F - 64.4 °F 69% 30.01 in 6.2 mi East 13.8 mph - N/A   Scattered Clouds
7:50 PM 75.2 °F - 62.6 °F 65% 30.01 in 6.2 mi East 12.7 mph - N/A   Partly Cloudy
8:20 PM 73.4 °F - 62.6 °F 69% 30.01 in 6.2 mi ENE 10.4 mph - N/A   Partly Cloudy
8:50 PM 73.4 °F - 62.6 °F 69% 30.01 in 6.2 mi East 4.6 mph - N/A   Partly Cloudy
9:20 PM 73.4 °F - 62.6 °F 69% 30.01 in 6.2 mi ESE 3.5 mph - N/A   Scattered Clouds
9:50 PM 71.6 °F - 62.6 °F 73% 30.01 in 6.2 mi ESE 4.6 mph - N/A   Partly Cloudy
10:20 PM 71.6 °F - 62.6 °F 73% 30.04 in - East 5.8 mph - N/A   Clear
10:50 PM 68.0 °F - 62.6 °F 83% 30.04 in - East 4.6 mph - N/A   Clear
11:20 PM 68.0 °F - 62.6 °F 83% 30.04 in - East 4.6 mph - N/A   Clear
11:50 PM 68.0 °F - 62.6 °F 83% 30.04 in - ENE 6.9 mph - N/A   Clear